Temperature
10 10 10 9 9 9 9 9 8 8 8 8 8 8 8 8 8 8 8 8 8 8 7 7 6 6 5 6 6 6 6 6 6 5 5 5 5 4 4 4 4 3 3
10 10 9 9 9 9 9 8 8 8 8 8 8 8 8 8 8 8 8 8 7 7 7 7 6 5 5 5 5 5 5 5 5 5 4 4 4 4 4 4 3 3 3
9 9 9 9 9 8 8 8 8 8 8 8 8 8 8 8 8 8 7 7 7 7 7 7 7 6 5 5 4 4 4 4 4 4 4 4 4 3 3 3 3 3 3
9 9 9 9 8 8 8 7 7 7 7 7 7 7 7 7 7 7 7 7 7 7 7 7 7 7 6 5 5 4 4 4 4 4 4 3 3 3 3 3 3 3 3
9 9 8 8 8 8 7 7 7 7 7 7 7 7 7 7 7 7 7 7 7 7 7 7 7 7 7 6 6 5 4 4 4 3 3 3 3 3 2 2 2 2 2
9 9 8 8 8 7 7 7 7 7 7 6 6 6 6 7 7 7 7 7 7 8 8 8 7 7 7 7 6 6 5 4 3 3 3 3 2 2 2 2 2 2 2
9 9 8 8 8 7 7 7 6 6 6 6 5 5 6 6 6 7 7 8 8 8 8 8 8 7 7 7 6 6 5 5 4 3 3 3 2 2 2 2 2 2 2
9 9 8 8 8 7 7 6 6 6 6 5 5 5 4 5 6 7 7 8 8 8 8 8 8 8 7 7 6 6 6 5 4 3 3 2 2 2 2 2 1 1 1
9 8 8 8 7 7 7 6 6 6 5 5 5 4 3 4 5 5 5 5 5 6 6 6 6 7 7 7 7 6 6 5 5 4 3 2 2 2 2 1 1 1 1
8 8 8 7 7 7 6 6 6 5 5 4 4 4 4 4 3 3 4 4 4 4 4 5 5 5 5 6 6 6 6 5 5 4 3 2 2 2 1 1 1 1 1
8 8 8 7 7 6 6 6 5 5 5 4 4 4 3 3 2 1 1 2 3 4 4 4 4 4 4 4 4 5 5 5 5 4 3 3 2 1 1 1 1 1 1
8 8 7 7 7 6 6 6 5 5 4 4 3 3 3 2 2 2 0 1 2 3 3 3 3 3 3 3 3 3 4 4 4 4 3 2 2 1 1 1 1 1 1
8 8 7 7 6 6 6 5 5 5 4 4 3 3 3 2 2 2 1 0 0 1 2 2 2 3 3 3 3 2 2 3 3 3 2 2 1 1 1 0 0 0 0
7 7 7 6 6 6 6 5 5 4 4 4 3 3 3 2 2 1 1 1 -1 -1 -0 1 1 1 2 2 2 2 1 1 1 1 1 1 0 0 0 -0 -0 -0 -1
6 6 6 6 6 6 5 5 4 4 4 3 3 3 2 2 2 1 1 0 -1 -2 -1 -0 -0 1 1 1 1 1 1 1 0 0 -0 -0 -1 -1 -1 -1 -1 -1 -1
6 6 6 5 5 5 5 4 4 4 3 3 3 2 2 2 1 1 0 -0 -1 -2 -3 -1 -1 -0 -0 -0 -0 -0 -0 -0 -1 -1 -1 -2 -2 -2 -2 -2 -2 -2 -2
5 5 5 5 5 4 4 4 3 3 3 3 2 2 2 1 1 0 -0 -1 -1 -2 -3 -2 -2 -2 -2 -2 -1 -1 -1 -1 -1 -2 -2 -2 -2 -2 -2 -2 -2 -2 -2
5 4 4 4 4 4 3 3 3 3 2 2 2 1 1 1 0 -0 -1 -1 -2 -2 -3 -3 -2 -3 -2 -2 -2 -2 -2 -3 -3 -2 -3 -3 -3 -3 -3 -3 -3 -3 -3
4 4 3 3 3 3 2 2 2 1 1 1 1 0 0 -0 -0 -1 -1 -2 -2 -2 -3 -3 -3 -3 -4 -3 -3 -3 -3 -3 -3 -3 -4 -4 -4 -4 -4 -3 -3 -3 -3
3 3 3 2 2 1 1 1 0 0 0 0 -0 -0 -1 -1 -1 -1 -2 -2 -2 -3 -3 -4 -4 -4 -5 -5 -5 -5 -4 -4 -4 -4 -4 -5 -5 -5 -4 -4 -4 -4 -4
2 2 2 1 1 0 0 -0 -1 -1 -1 -1 -1 -1 -1 -1 -2 -2 -2 -2 -3 -3 -4 -4 -4 -5 -5 -5 -5 -5 -5 -5 -5 -5 -5 -5 -5 -5 -5 -5 -4 -4 -4
1 1 1 0 0 -0 -1 -2 -2 -2 -2 -2 -2 -2 -2 -2 -2 -2 -3 -3 -3 -3 -3 -4 -4 -5 -5 -5 -5 -5 -6 -6 -7 -6 -6 -6 -6 -6 -5 -5 -5 -5 -5
0 -0 -0 -1 -1 -1 -2 -2 -3 -3 -3 -3 -3 -3 -3 -3 -3 -3 -3 -3 -3 -3 -3 -3 -4 -4 -4 -4 -5 -5 -6 -6 -6 -6 -6 -6 -6 -6 -5 -5 -5 -5 -5
-1 -2 -2 -2 -2 -2 -3 -3 -3 -3 -3 -3 -3 -3 -3 -3 -3 -3 -3 -4 -3 -3 -3 -3 -3 -3 -4 -4 -4 -4 -5 -5 -6 -6 -7 -7 -6 -6 -6 -6 -5 -6 -6
-2 -2 -3 -3 -3 -3 -3 -3 -4 -4 -4 -4 -4 -4 -4 -4 -3 -4 -4 -4 -4 -4 -4 -4 -4 -4 -4 -4 -4 -5 -6 -7 -7 -7 -7 -7 -7 -6 -6 -6 -6 -6 -6
-3 -4 -4 -4 -4 -4 -4 -4 -4 -4 -4 -4 -4 -4 -4 -4 -4 -4 -4 -4 -4 -4 -4 -4 -4 -4 -4 -4 -5 -5 -5 -6 -7 -7 -7 -7 -7 -7 -7 -6 -6 -6 -6
Wind_Speed
12 12 12 13 12 12 10 10 10 9 9 10 11 12 13 15 16 17 18 17 18 18 17 16 16 15 14 13 12 11 11 10 9 8 8 7 7 6 6 6 5 5 6
16 14 13 13 15 15 15 14 13 11 11 11 12 14 16 17 18 19 20 20 20 21 20 20 19 18 17 16 16 15 14 13 12 11 10 10 9 9 8 8 7 7 7
18 16 13 13 16 18 16 14 12 10 9 9 9 14 15 17 18 20 21 21 22 23 23 23 23 22 21 20 19 18 17 16 15 14 13 12 12 11 10 10 9 9 9
21 18 13 14 18 17 15 10 7 6 7 7 8 8 12 14 17 20 21 22 22 22 24 26 26 25 24 23 22 21 20 19 18 17 16 15 14 14 13 12 11 11 11
21 19 16 16 17 14 13 10 7 7 8 10 10 9 9 11 15 18 19 22 23 24 25 26 28 28 27 26 25 24 23 22 21 20 19 18 17 16 15 14 14 13 12
21 20 17 16 15 9 9 9 10 9 8 8 9 10 9 10 11 13 18 21 23 25 26 26 26 27 29 29 28 27 26 25 23 22 21 20 19 18 17 17 16 15 15
20 20 15 13 13 11 13 12 9 9 9 5 4 7 8 12 15 15 15 16 19 25 25 26 25 24 25 29 30 30 29 27 26 25 24 23 22 21 20 19 18 17 17
20 19 16 12 11 11 12 12 11 7 7 7 6 3 6 6 8 13 13 13 14 16 18 24 24 24 24 24 27 30 30 30 29 27 26 25 24 23 22 21 20 20 19
19 20 19 16 12 12 14 15 15 13 11 9 10 7 6 8 4 5 8 10 11 10 11 15 21 24 25 25 25 30 33 32 31 30 28 27 26 25 24 23 22 22 21
17 20 19 17 14 13 15 16 15 14 13 12 7 12 12 7 6 6 4 5 8 10 11 12 15 21 25 25 26 28 31 33 33 32 31 29 28 27 26 25 24 24 23
12 16 17 15 14 13 15 15 14 15 14 15 11 7 11 11 11 10 12 7 6 8 11 12 11 15 21 23 24 28 32 32 33 33 33 31 30 29 28 27 26 25 24
6 10 13 13 13 13 15 16 16 15 16 16 15 12 9 8 9 12 17 13 11 8 10 12 12 12 18 21 25 29 32 32 33 33 33 32 31 30 29 28 26 25 25
6 9 9 10 12 12 13 13 14 16 17 17 18 16 15 16 10 10 15 15 11 7 8 9 12 13 17 20 22 30 32 32 33 33 33 33 31 30 29 28 27 26 26
8 9 8 10 11 12 13 13 13 15 15 17 19 18 16 16 14 15 13 12 14 11 8 10 6 11 15 19 23 29 26 32 33 34 34 33 32 31 30 29 28 27 26
8 9 9 9 11 12 13 13 12 14 15 16 17 18 18 16 15 15 15 14 14 15 15 9 9 10 14 18 24 23 22 29 32 33 34 34 33 32 31 30 29 28 27
8 9 9 10 10 11 11 12 12 13 15 15 14 16 18 16 15 14 15 15 16 17 17 6 9 8 12 13 23 22 22 29 32 32 33 33 33 33 32 31 30 29 28
9 9 10 10 10 11 11 11 13 13 15 16 15 16 19 17 16 14 14 15 16 16 22 17 7 9 12 13 12 15 20 20 21 30 32 32 32 32 32 31 30 30 29
9 10 10 11 11 12 11 12 14 14 15 16 16 16 18 16 18 16 15 17 17 17 19 24 10 9 13 12 12 12 12 16 16 27 30 31 31 31 31 31 31 30 29
11 10 10 11 12 12 12 13 14 15 15 16 15 16 17 16 18 16 17 17 16 16 17 20 17 9 10 9 10 11 12 11 13 21 27 30 31 32 31 31 31 31 30
11 12 12 12 13 13 13 14 14 15 15 15 15 16 16 16 18 17 17 18 16 16 16 18 17 11 10 7 9 11 12 11 13 13 18 22 26 30 31 31 31 30 30
13 13 13 14 13 12 12 13 13 15 15 16 15 16 16 20 23 20 17 15 15 16 15 16 17 13 12 8 10 10 14 10 11 11 10 12 11 11 12 24 29 29 29
13 13 13 15 15 14 22 27 22 15 14 15 15 14 15 19 23 28 30 28 23 19 18 17 17 17 15 14 12 12 12 11 11 8 12 13 11 12 10 10 23 27 27
13 14 13 14 16 18 27 29 29 20 15 13 13 13 13 13 19 15 21 27 27 30 29 20 20 20 16 15 15 15 14 12 13 8 9 12 11 13 10 16 27 28 29
14 14 15 15 16 19 28 30 29 20 14 13 13 13 14 14 14 15 14 15 16 17 20 17 17 16 15 12 15 17 16 15 10 8 10 9 8 11 11 10 23 27 27
15 15 15 15 17 20 27 29 28 13 12 13 13 13 14 14 21 24 17 15 15 15 21 27 27 23 25 25 20 13 14 12 12 11 11 9 7 8 9 10 15 25 26
16 16 16 15 17 18 25 28 27 12 12 12 11 12 18 19 21 23 15 14 16 14 12 13 16 19 17 19 25 18 15 14 8 8 10 10 8 7 6 8 10 11 14
Wind_Direction
190 195 202 207 213 217 218 220 224 228 233 238 242 244 247 249 252 254 257 260 264 266 267 266 264 261 260 258 256 256 256 256 259 261 264 269 274 280 286 293 301 307 314
197 197 203 209 215 217 220 222 225 229 236 241 245 245 248 251 252 252 254 256 259 262 264 264 263 262 260 258 256 254 253 253 255 257 259 262 266 269 274 280 285 289 296
203 202 206 213 219 220 221 224 230 234 242 243 247 249 250 251 251 252 252 253 253 257 260 262 263 262 260 258 256 255 253 252 253 254 256 257 260 263 266 270 274 278 282
208 206 211 220 220 216 214 215 217 223 236 239 246 248 248 249 250 251 251 250 249 250 252 256 258 259 260 259 256 254 252 251 251 251 253 254 256 258 260 264 267 271 275
212 211 219 224 216 210 214 221 216 214 233 240 246 249 246 248 250 251 248 246 245 244 245 250 253 254 256 257 257 255 253 250 249 249 250 252 253 255 257 259 262 265 269
215 217 225 225 211 209 218 219 226 219 227 238 252 258 250 245 244 244 246 247 244 242 241 241 244 248 250 252 253 254 253 251 249 248 248 249 251 252 253 255 257 260 263
219 219 228 224 214 221 227 222 222 227 233 216 246 275 263 245 244 244 242 241 242 240 238 236 237 238 243 247 249 250 251 250 249 247 247 247 248 249 251 252 253 255 257
224 224 227 229 221 226 230 224 216 221 226 192 197 240 292 292 245 239 237 236 239 238 236 235 233 233 234 237 242 246 249 250 249 248 246 246 246 247 248 250 251 252 254
230 230 230 230 227 225 232 230 222 222 232 215 203 202 231 252 293 258 235 235 234 231 234 235 233 233 233 233 236 242 244 246 247 247 246 245 245 247 248 249 249 251 252
232 233 234 232 232 230 233 234 228 225 227 233 216 222 229 218 240 289 259 244 239 233 231 232 233 233 232 232 234 237 240 242 244 244 244 244 244 245 246 247 247 248 249
236 236 235 235 236 235 236 236 233 227 226 233 227 213 231 240 235 248 269 258 243 231 229 228 228 229 230 230 232 235 238 239 240 240 241 242 243 245 246 247 247 248 249
250 242 239 238 240 240 239 239 238 233 232 232 233 225 215 216 218 227 248 257 257 239 225 227 226 226 228 229 230 235 238 238 238 238 238 240 242 244 246 247 248 250 250
268 258 244 242 243 243 244 242 240 239 237 235 235 236 234 234 224 224 241 256 257 249 228 227 222 222 226 227 230 236 239 238 237 237 237 238 240 242 244 246 247 249 251
271 268 255 248 247 247 247 244 243 243 241 239 239 237 239 239 233 231 235 247 263 264 238 232 218 219 222 225 228 235 239 240 239 238 237 238 238 240 241 244 245 247 249
277 275 269 263 258 254 251 249 248 247 245 242 241 240 240 241 236 235 234 231 241 263 267 222 210 214 218 223 229 232 231 237 241 240 239 238 238 239 240 241 243 244 246
282 282 280 273 269 263 258 253 253 252 249 247 244 243 243 243 240 236 235 233 231 242 261 236 209 200 210 222 228 230 230 236 241 243 241 240 239 238 239 240 241 242 244
287 283 280 278 274 270 264 259 256 254 253 253 248 245 246 241 242 238 235 234 234 233 251 258 212 203 206 218 228 228 227 232 237 241 242 241 240 239 239 239 240 242 244
286 282 281 280 277 273 267 262 264 260 256 256 253 248 249 246 242 240 236 235 235 232 240 256 244 211 215 216 220 224 227 229 229 237 242 242 242 241 240 241 241 241 243
288 286 282 280 279 276 272 268 265 264 260 258 256 252 251 247 247 243 238 238 236 236 236 248 253 225 223 217 220 228 230 230 226 234 240 244 244 243 243 243 242 241 242
288 287 283 280 278 277 274 272 269 267 265 262 258 254 252 247 248 246 243 240 237 236 236 242 250 240 228 204 210 223 232 229 233 232 237 240 243 244 245 245 243 243 243
286 283 284 284 281 279 277 274 270 266 264 264 261 255 252 252 251 251 247 242 235 237 237 240 246 243 232 212 216 215 229 229 229 224 228 234 237 238 239 245 244 244 244
288 285 282 284 285 284 288 292 290 278 268 265 265 261 257 260 262 262 259 253 240 233 233 236 240 239 234 223 217 216 222 224 232 210 220 231 226 234 233 232 242 244 246
291 289 286 285 285 286 293 295 294 291 281 274 269 268 268 264 267 257 260 261 258 250 239 231 236 237 232 221 214 217 216 216 225 201 200 227 221 230 229 233 238 240 243
293 292 292 290 289 291 297 298 298 294 284 277 272 268 268 268 262 262 254 252 251 253 254 247 239 237 232 221 212 215 217 222 226 211 197 220 213 224 225 225 236 238 240
297 294 293 292 292 295 298 299 298 289 284 279 273 268 269 267 270 272 265 257 254 251 255 253 249 244 236 230 218 213 214 217 226 220 205 215 215 218 222 226 231 236 239
297 298 295 293 292 293 295 300 299 291 287 284 276 269 272 274 274 274 266 259 259 254 244 249 252 252 244 238 230 215 209 215 215 214 198 202 207 199 225 224 223 228 237
Height
1551 1552 1554 1555 1555 1556 1556 1557 1557 1556 1556 1556 1555 1555 1555 1554 1554 1554 1553 1553 1552 1551 1551 1551 1551 1551 1550 1550 1549 1549 1548 1547 1547 1546 1546 1545 1544 1544 1543 1542 1542 1541 1541
1547 1549 1550 1551 1551 1552 1553 1553 1553 1552 1552 1551 1551 1551 1550 1550 1550 1549 1549 1548 1548 1547 1547 1547 1547 1547 1547 1546 1546 1545 1545 1544 1543 1543 1542 1542 1541 1540 1540 1540 1539 1539 1538
1543 1544 1545 1546 1547 1548 1548 1548 1548 1547 1546 1546 1545 1545 1545 1545 1544 1544 1544 1543 1543 1542 1542 1542 1541 1541 1542 1542 1542 1541 1541 1540 1539 1539 1538 1538 1537 1537 1536 1536 1536 1536 1535
1538 1539 1540 1540 1542 1542 1542 1542 1542 1541 1540 1540 1539 1539 1538 1538 1537 1537 1536 1536 1536 1536 1536 1536 1535 1535 1535 1536 1536 1536 1536 1535 1535 1534 1534 1533 1533 1533 1533 1532 1532 1532 1532
1533 1533 1534 1534 1535 1536 1536 1536 1535 1534 1533 1533 1532 1531 1530 1529 1528 1528 1527 1527 1527 1528 1528 1528 1528 1528 1528 1529 1529 1529 1530 1530 1529 1529 1529 1528 1528 1528 1528 1528 1528 1527 1527
1527 1527 1527 1527 1528 1528 1528 1528 1527 1527 1526 1526 1524 1521 1519 1519 1518 1517 1517 1517 1517 1518 1518 1519 1520 1520 1520 1520 1521 1522 1522 1523 1523 1523 1523 1523 1522 1523 1523 1523 1523 1523 1523
1520 1520 1520 1520 1520 1519 1519 1519 1519 1518 1517 1518 1515 1511 1508 1508 1505 1505 1506 1506 1506 1507 1507 1508 1509 1509 1510 1511 1512 1513 1514 1514 1515 1516 1516 1516 1516 1516 1516 1517 1517 1517 1517
1513 1512 1512 1511 1511 1510 1510 1510 1510 1508 1508 1509 1507 1504 1498 1494 1492 1493 1493 1493 1494 1495 1495 1496 1497 1497 1499 1500 1501 1503 1504 1505 1506 1507 1508 1509 1509 1509 1510 1510 1511 1511 1512
1506 1505 1504 1504 1503 1502 1500 1500 1500 1499 1497 1498 1498 1498 1494 1484 1483 1480 1481 1482 1483 1484 1485 1486 1486 1487 1488 1489 1490 1492 1493 1494 1496 1497 1499 1500 1501 1502 1502 1503 1504 1504 1505
1500 1498 1497 1495 1494 1493 1491 1491 1490 1488 1488 1486 1486 1485 1484 1482 1481 1472 1470 1471 1471 1472 1473 1475 1475 1476 1478 1478 1479 1481 1482 1483 1484 1486 1489 1490 1492 1493 1494 1495 1496 1497 1498
1493 1492 1490 1488 1486 1484 1482 1481 1480 1478 1477 1476 1475 1473 1472 1471 1469 1467 1458 1458 1459 1459 1461 1462 1463 1464 1466 1466 1467 1469 1470 1471 1473 1475 1477 1480 1482 1484 1486 1487 1488 1489 1490
1487 1485 1483 1480 1478 1476 1474 1472 1470 1468 1466 1464 1464 1462 1461 1459 1457 1456 1451 1446 1446 1445 1448 1448 1449 1451 1453 1454 1455 1457 1459 1459 1461 1463 1466 1468 1471 1473 1476 1477 1479 1480 1482
1481 1479 1476 1473 1471 1468 1466 1463 1461 1458 1457 1454 1452 1451 1449 1446 1447 1446 1443 1437 1435 1433 1433 1432 1434 1437 1439 1441 1442 1445 1446 1447 1449 1451 1454 1456 1459 1462 1464 1467 1468 1470 1472
1475 1473 1470 1466 1463 1460 1458 1455 1451 1449 1446 1443 1441 1439 1437 1435 1435 1433 1432 1431 1426 1421 1419 1418 1421 1423 1426 1428 1430 1432 1432 1434 1436 1439 1441 1444 1447 1450 1453 1455 1458 1460 1462
1469 1466 1463 1459 1456 1452 1449 1446 1442 1439 1436 1433 1430 1428 1425 1423 1423 1421 1421 1421 1420 1412 1404 1405 1408 1410 1414 1416 1418 1419 1420 1422 1424 1426 1429 1432 1435 1438 1441 1444 1446 1449 1451
1463 1459 1455 1451 1448 1444 1440 1436 1432 1429 1425 1422 1419 1416 1413 1412 1410 1409 1409 1408 1407 1404 1395 1389 1395 1398 1402 1403 1406 1407 1408 1410 1412 1414 1417 1420 1424 1427 1430 1433 1435 1438 1440
1456 1451 1447 1443 1439 1435 1431 1427 1422 1418 1414 1410 1408 1405 1401 1400 1398 1397 1396 1395 1394 1393 1386 1378 1385 1387 1390 1392 1394 1396 1397 1398 1400 1403 1405 1408 1412 1415 1418 1421 1424 1427 1429
1448 1443 1438 1434 1429 1425 1421 1416 1411 1407 1403 1398 1395 1393 1389 1388 1386 1384 1383 1382 1380 1380 1378 1370 1372 1375 1377 1380 1382 1384 1386 1387 1388 1391 1393 1396 1400 1403 1406 1409 1412 1415 1418
1439 1435 1429 1424 1419 1414 1409 1405 1400 1395 1391 1387 1384 1381 1378 1377 1373 1372 1371 1369 1368 1368 1366 1363 1359 1364 1365 1367 1370 1372 1373 1375 1376 1378 1381 1384 1388 1391 1394 1398 1401 1404 1407
1430 1425 1419 1414 1409 1403 1398 1393 1388 1383 1379 1375 1372 1369 1366 1364 1361 1360 1359 1357 1356 1356 1355 1353 1350 1352 1354 1355 1358 1358 1360 1362 1364 1367 1369 1372 1375 1379 1382 1386 1390 1393 1395
1421 1415 1409 1403 1398 1392 1387 1382 1376 1371 1367 1362 1359 1357 1355 1353 1350 1348 1346 1344 1345 1344 1343 1342 1340 1341 1342 1344 1343 1345 1348 1350 1352 1355 1357 1360 1363 1365 1369 1373 1377 1381 1384
1411 1405 1398 1392 1386 1381 1376 1372 1367 1361 1356 1352 1348 1345 1343 1341 1339 1337 1335 1334 1333 1332 1331 1331 1329 1328 1329 1332 1334 1336 1338 1340 1341 1343 1346 1347 1351 1353 1356 1361 1365 1369 1372
1400 1393 1387 1381 1375 1369 1365 1360 1356 1352 1346 1342 1338 1335 1332 1329 1328 1325 1323 1322 1322 1321 1321 1320 1317 1316 1318 1321 1324 1326 1327 1328 1330 1333 1336 1337 1340 1341 1346 1349 1353 1357 1361
1390 1383 1376 1370 1364 1358 1354 1349 1345 1341 1336 1332 1329 1326 1322 1319 1317 1314 1311 1309 1308 1308 1310 1309 1307 1306 1309 1311 1313 1315 1317 1319 1322 1325 1327 1328 1330 1333 1336 1339 1343 1346 1350
1379 1373 1366 1360 1353 1347 1344 1339 1335 1330 1326 1322 1319 1317 1313 1309 1307 1305 1302 1299 1298 1297 1298 1298 1297 1298 1299 1301 1303 1306 1308 1311 1311 1313 1317 1319 1321 1325 1327 1329 1333 1337 1340
1370 1363 1356 1351 1344 1338 1334 1330 1327 1322 1317 1313 1310 1307 1305 1302 1299 1296 1294 1291 1289 1287 1288 1287 1287 1288 1290 1292 1294 1295 1296 1299 1301 1304 1306 1310 1313 1317 1318 1319 1323 1326 1329